Regional Weather Roundup
Issued by NWS Wakefield, VA

Home | Current Version | Previous Version | Graphics & Text | Print | Product List | Glossary On
Versions: 1 2 3 4 5 6 7 8 9 10 11 12 13 14 15 16 17 18 19 20 21 22 23 24 25 26 27 28 29 30 31 32 33 34 35 36 37 38 39 40 41 42 43 44 45 46 47 48 49 50
000
ASUS41 KAKQ 230115
RWRAKQ

REGIONAL WEATHER ROUNDUP
NATIONAL WEATHER SERVICE WAKEFIELD VA
900 PM EDT MON MAY 22 2017

Note: "fair" indicates few or no clouds below 12,000 feet with no
significant weather and/or obstructions to visibility. * = Denotes
station may not report precipitation (e.g., rain,snow,etc.),
thunder or fog.

VAZ042-051-052>054-056-230200-
NORTHERN VIRGINIA

CITY           SKY/WX    TMP DP  RH WIND       PRES   REMARKS
WASH NATIONAL  MOCLDY    69  64  84 S5        29.97S
DULLES         CLOUDY    68  63  84 CALM      29.97S
FORT BELVOIR   CLOUDY    65  63  94 CALM      29.97S
QUANTICO       CLOUDY    68  65  90 CALM      29.98R
FREDERICKSBRG* MOCLDY    67  67 100 CALM      29.97R
STAFFORD*      MOCLDY    65  65 100 CALM      30.01S
WARRENTON      CLOUDY    67  63  85 SE3       29.97R
CULPEPER*      MOCLDY    68  67  95 CALM      29.97S
MANASSAS*        N/A     65  64  97 CALM      29.98R
LEESBURG*      CLOUDY    68  66  94 CALM      29.98S
WINCHESTER     CLOUDY    64  50  59 NW8       29.98R
FRONT ROYAL*   CLOUDY    68  61  77 N3        29.98R
LURAY*         PTCLDY    70  52  52 CALM      29.99R
$$

VAZ048-049-060>072-079>083-230200-
CENTRAL AND SOUTH CENTRAL VIRGINIA

CITY           SKY/WX    TMP DP  RH WIND       PRES   REMARKS
RICHMOND       CLOUDY    67  66  97 CALM      29.97R
CHESTERFIELD*  FAIR     N/A N/A N/A CALM      29.98R
PETERSBURG*      N/A     65  64  96 CALM      29.98R
HANOVER        FOG       66  63  90 CALM      29.98R VSB 3/4
TAPPAHANNOCK*  MOCLDY    67  67 100 CALM      29.97R
QUINTON*       FAIR      66  66 100 CALM      29.96R
CHARLOTTSVILLE CLOUDY    71  69  93 N5        29.96R
GORDONSVILLE*  CLOUDY    69  69  98 CALM      29.95F
ORANGE*        MOCLDY    68  64  88 CALM      29.96S
LOUISA*        CLOUDY    72  70  94 CALM      29.95S
BUMPASS*       MOCLDY    66  66 100 E3        29.96S
FARMVILLE*     PTCLDY    71  69  94 CALM      29.94S
CREWE*         FAIR      67  64  87 CALM      29.96R
FORT PICKETT*  FAIR      67  64  88 E3        29.97R
CHASE CITY*    FAIR      70  68  95 CALM      29.97S
CLARKSVILLE*   FAIR      70  70 100 CALM      29.97R
SOUTH HILL*    CLOUDY    67  67 100 CALM      30.03R
LAWRENCEVILLE* FAIR      68  67  97 CALM      29.97R
EMPORIA*         N/A     68  66  94 CALM      30.00R
$$

VAZ088>098-230200-
SOUTHEAST VIRGINIA

CITY           SKY/WX    TMP DP  RH WIND       PRES   REMARKS
NORFOLK        CLOUDY    71  67  87 NW6       29.95R
VIRGINIA BEACH CLOUDY    69  66  90 NW7       29.93S
NORFOLK NAVAL  CLOUDY    71  67  87 NW12      29.97R
WEST POINT*    CLOUDY    69  66  92 CALM      29.97R
SALUDA*        FAIR      67  67 100 NW3       29.95R
NEWPORT NEWS   CLOUDY    68  66  93 NW5       29.96R
LANGLEY AFB    CLOUDY    69  68  98 W3        29.95R
FORT EUSTIS    CLOUDY    69  66  90 CALM      29.93R
WILLIAMSBURG*  CLOUDY    70  70 100 CALM      29.97R
HR EXEC AP*    FAIR      66  64  94 CALM      29.94R
FRANKLIN*      CLOUDY    68  66  95 CALM      29.97R
US460-WAKEFLD  MOCLDY    68  67  96 CALM      29.97R FOG
$$

VAZ020-022-025-037-045-230200-
WEST CENTRAL AND SOUTHWEST VIRGINIA

CITY           SKY/WX    TMP DP  RH WIND       PRES   REMARKS
STAUNTON*      CLOUDY    69  50  50 N7        29.99F
WAYNESBORO*    PTCLDY    68  58  69 N5        29.98F
HOT SPRINGS VA CLEAR     55  41  58 NW12      30.09R
LYNCHBURG      PTCLDY    65  60  84 CALM      29.98S
DANVILLE       PTCLDY    69  69 100 CALM      29.97R
SOUTH BOSTON*  FAIR      70  68  95 CALM      29.96S
MARTINSVILLE   PTCLDY    68  66  95 CALM      30.00S
ROANOKE        CLOUDY    68  55  63 N8        30.00F
BLACKSBURG     PTCLDY    63  54  74 CALM      30.06S
DUBLIN*        PTCLDY    66  49  54 N5        30.04S
MARION*        PTCLDY    63  58  85 CALM      30.07R
HILLSVILLE*    PTCLDY    64  57  79 CALM      30.04S
RICHLANDS*     FAIR      61  56  84 CALM      30.06S
WISE*          PTCLDY    59  54  82 NE5       30.06F
ABINGDON*      PTCLDY    65  61  85 CALM      30.03R
$$

MDZ021>025-VAZ099-100-230200-
SOUTHERN MARYLAND AND THE DELMARVA PENINSULA

CITY           SKY/WX    TMP DP  RH WIND       PRES   REMARKS
PATUXENT RIVER CLOUDY    66  66 100 N7        29.97R
BAY BRIDGE APT CLOUDY    63  63 100 NW3       29.98R
LEONARDTOWN    CLOUDY    63  63 100 CALM      29.99R
DOVER          DRIZZLE   64  64 100 CALM      29.95S
GEORGETOWN     CLOUDY    68  66  93 E3        29.96S FOG
EASTON         MOCLDY    66  64  94 CALM      30.00S
CAMBRIDGE      MOCLDY    66  66 100 NW5       29.96R
SALISBURY      FOG       67  67 100 NE3       29.94F VSB 1/2
OCEAN CITY     FOG       66  65  96 CALM      29.96F VSB 1/2
WALLOPS ISLAND MOCLDY    66  66 100 NE6       29.94F
ACCOMACK*      CLOUDY    67  53  59 NE3       29.93R
$$

NCZ012>017-030>032-230200-
NORTH CENTRAL AND EASTERN NORTH CAROLINA

CITY           SKY/WX    TMP DP  RH WIND       PRES   REMARKS
ROANOKE RAPIDS FAIR      70  68  94 CALM      29.98R
RALEIGH        LGT RAIN  73  68  84 E5        29.98R
ELIZABETH CITY CLOUDY    72  70  93 W3        29.96R
AHOSKIE*         N/A     69  67  96 CALM      29.98R
EDENTON*       CLOUDY    74  67  80 CALM      29.97S
CURRITUCK*     CLOUDY    72  72 100 W5        29.97R
KILL DEVIL HLS NOT AVBL
MANTEO         NOT AVBL
CAPE HATTERAS  CLOUDY    72  65  78 NW13G24   30.01R
TARBORO*       NOT AVBL
GOLDSBORO      CLOUDY    77  72  85 S7        29.96R
WASHINGTON     CLOUDY    74  68  80 CALM      29.98R
GREENVILLE     CLOUDY    73  68  83 CALM      30.00R
NEW BERN       LGT RAIN  70  67  90 W3        30.01R
WILMINGTON     RAIN      69  68  96 S7        30.00S FOG
$$

VAZ048-230200-
ELSEWHERE

CITY           SKY/WX    TMP DP  RH WIND       PRES   REMARKS
HARRISBURG PA  CLOUDY    63  61  93 W3        29.98S
BALTIMORE      CLOUDY    64  63  96 CALM      29.98R
ANNAPOLIS      PTCLDY    65  64  97 CALM      29.98R
ANDREWS AFB    CLOUDY    65  63  94 E5        29.96S
PHILADELPHIA   CLOUDY    66  61  84 W5        29.98S
HENDERSON NC   CLOUDY    67  65  94 CALM      29.98R
GREENSBORO     CLOUDY    73  69  87 CALM      29.97R
ROCKY MOUNT    CLOUDY    71  70  96 CALM      29.98R
$$

VAZ100-230200-
MARINE

STATION/POSITION TIME  TEMP    WIND        PRES    WAVE   SWELL
                       AIR SEA DIR/SP/G            HT/PER HT/PER
                 (UTC) (F)     (DEG/KT/KT) (MB)    (FT/S) (FT/S)
CAPE MAY NJ      0036   62 61   CALM  /  1 1014.5R
LEWES DE         0036   63 63     CALM     1014.4R
15NM E FENWICK I 2350   65 58  240/  4/  6 1014.6    3/ 6   3/ 6
OCEAN-CITY-INLET 0036   66 62     CALM     1014.8R
WACHAPREAGUE VA  0036   67 67  350/  4/  6 1012.9R
THOMAS POINT MD  0100   64 66  330/  3/  3   N/A
GOOSES REEF MD   0100   66 58  360/  6/  6 1015.7    0
COVE POINT MD    0036   65     350/  7/ 10 1015.3R
SOLOMONS ISLAND  0036   66 67  350/  5/  5   N/A
BISHOPS HEAD MD  0036   67 69  350/  3/  5 1014.4F
PINEY POINT MD   0048           10/  4/  4   N/A
POTOMAC MD       0100   67 68  350/  6/  8 1013.8    0
CAMBRIDGE MD     0036   67 70                N/A
LEWISETTA VA     0036   67 70  350/  4/  5 1014.6R
RAPPAHANNOCK LGT 0048          350/ 12/ 13 1014.3R
STINGRAY PT      0050   68      20/ 10/ 12 1013.9R
YORK RVR RNG VA  0036   69     350/ 10/ 11 1013.1R
YORKTOWN VA      0036   69 70  320/  8/  9 1013.8R
JAMESTOWN VA     0100   71 73   20/  2/  4   N/A     0
DOMINION TERM VA 0036   70     350/  4/  5 1014.3R
KIPTOPEKE VA     0048      66  320/ 10/ 12   N/A
CHES BAY BRIDGE  0048   69 65  300/ 13/ 14 1013.9R
CAPE HENRY VA    0048   68     280/ 11/ 14   N/A
WILLOUBY STN VA  0048   69     330/  7/  8 1014.3R
S CRANEY ISL VA  0036   71     310/  3/  5 1013.9R
CAPE HENRY BUOY  0042      62                N/A     3/ 8
1ST LANDING BUOY 0100   69 68              1014.1    2/ 3
CAPE CHARLES BUO 0051      64                N/A     3/ 9
64NM E OF VA BCH 0050   70 69  210/ 16/ 19 1013.8F   4/ 9   3/ 9
DUCK PIER NC     0048   73 65  230/  7/  8 1014.1R
44100 DUCK FRF   0035      66                N/A     3/ 7
44056 DUCK FRF   0030      66                N/A     3/ 6
OREGON INLET NC  0048          150/  8/ 12 1014.6R
HATTERAS NC      0048   70 74  310/ 19/ 25 1016.2R
DIAMOND SHLS NC  0050   78 78  220/ 17/ 21 1015.4R   4/ 8   3/ 8
CAPE LOOKOUT NC  0100   76     230/  6/  8 1015.5R
$$



USA.gov is the U.S. government's official web portal to all federal, state and local government web resources and services.